Regional Weather Roundup
Issued by NWS

Home | Current Version | Previous Version | Graphics & Text | Print | Product List | Glossary On
Versions: 1 2 3 4 5 6 7 8 9 10 11 12 13 14 15 16 17 18 19 20 21 22 23 24 25 26 27 28 29 30 31 32 33 34 35 36 37 38 39 40 41 42 43 44 45 46 47 48 49 50
000
ASUS43 KMKX 291200
RWRWI

WISCONSIN REGIONAL WEATHER ROUNDUP
NATIONAL WEATHER SERVICE MILWAUKEE/SULLIVAN WI
700 AM CDT FRI APR 29 2016

NOTE: "FAIR" INDICATES FEW OR NO CLOUDS BELOW 12,000 FEET WITH NO
SIGNIFICANT WEATHER AND/OR OBSTRUCTIONS TO VISIBILITY.

WIZ001-002-006>008-014>016-023>028-291300-
NORTHWEST WISCONSIN

CITY           SKY/WX    TMP DP  RH WIND       PRES   REMARKS
SUPERIOR ARPT  CLEAR     28  27  99 CALM      30.20R
ASHLAND        SUNNY     30  29  96 CALM      30.18S
6HR MIN TEMP:  26; 6HR MAX TEMP:  30;

HAYWARD        CLOUDY    29  26  89 CALM      30.16S
6HR MIN TEMP:  26; 6HR MAX TEMP:  33;

SIREN          CLEAR     28  26  94 CALM      30.17S
CUMBERLAND     CLOUDY    30  27  86 N5        30.15R WCI  25
RICE LAKE      CLOUDY    33  29  85 CALM      30.17R
CHETEK         CLOUDY    37  32  83 CALM      30.16R
LADYSMITH      CLOUDY    38  36  89 W6        30.15F WCI  34
EAU CLAIRE     NOT AVBL
MENOMONIE      CLOUDY    38  38 100 CALM      30.16R
NEW RICHMOND   FOG       34  34 100 CALM      30.16R VSB 3/4
OSCEOLA        FOG       34  34 100 NE3       30.19S VSB 1/2
$$

WIZ003>005-009-010-017-018-291300-
NORTH CENTRAL WISCONSIN

CITY           SKY/WX    TMP DP  RH WIND       PRES   REMARKS
MANITOWISH WTR CLOUDY    37  37  99 CALM      30.14R
ARBOR VITAE    CLOUDY    39  37  91 N3        30.14R
WOODRUFF       CLOUDY    39  37  91 N3        30.14R
RHINELANDER    CLOUDY    38  36  92 N3        30.13R
6HR MIN TEMP:  37; 6HR MAX TEMP:  38; 6HR PCP: TRACE;

EAGLE RIVER    CLOUDY    38  36  92 N5        30.13R WCI  34
LAND O LAKES   CLOUDY    38  35  89 CALM      30.15R
PHILLIPS       CLOUDY    37  35  90 CALM      30.13R
TOMAHAWK       CLOUDY    37  35  95 NW3       30.13S
MEDFORD        CLOUDY    36  36 100 CALM      30.12R
MERRILL        CLOUDY    37  37 100 CALM      30.13R
$$

WIZ029-030-035-036-043>047-291300-
CENTRAL WISCONSIN

CITY           SKY/WX    TMP DP  RH WIND       PRES   REMARKS
WAUSAU         CLOUDY    40  36  86 N6        30.12R
6HR MIN TEMP:  39; 6HR MAX TEMP:  40;

MOSINEE        CLOUDY    37  37 100 N7        30.13R WCI  32
MARSHFIELD     CLOUDY    39  35  86 N7        30.12R WCI  34
6HR MIN TEMP:  38; 6HR MAX TEMP:  39;

STEVENS POINT  CLOUDY    35  34  96 N3        30.13R
WAUPACA        CLOUDY    40  36  83 N5        30.13R
WAUTOMA        NOT AVBL
WISC RAPIDS    CLOUDY    40  34  79 NE9       30.14R WCI  34
6HR MIN TEMP:  38; 6HR MAX TEMP:  40;

CAMP DOUGLAS   CLOUDY    37  37 100 W6        30.13R WCI  33
$$

WIZ011>013-019>022-031-037>040-048>050-291300-
NORTHEAST WISCONSIN

CITY           SKY/WX    TMP DP  RH WIND       PRES   REMARKS
ANTIGO         CLOUDY    37  36  96 N7        30.12R WCI  31
SHAWANO        CLOUDY    41  36  81 CALM      30.13R
OCONTO         CLOUDY    41  32  70 N5        30.12R
STURGEON BAY   CLOUDY    39  32  75 NE5       30.14R
6HR MIN TEMP:  39; 6HR MAX TEMP:  41;

GREEN BAY      CLOUDY    41  34  76 N6        30.12R
6HR MIN TEMP:  41; 6HR MAX TEMP:  43; 6HR PCP: TRACE;

MANITOWOC      NOT AVBL
APPLETON       CLOUDY    39  34  81 N8        30.10R WCI  34
CLINTONVILLE   CLOUDY    37  34  87 CALM      30.13R
OSHKOSH        CLOUDY    41  35  79 N9        30.11R
6HR MIN TEMP:  41; 6HR MAX TEMP:  42;

$$

WIZ032>034-041-042-053>061-291300-
SOUTHWEST WISCONSIN

CITY           SKY/WX    TMP DP  RH WIND       PRES   REMARKS
LA CROSSE      CLOUDY    41  37  86 N7        30.15R
6HR MIN TEMP:  40; 6HR MAX TEMP:  41;

SPARTA         CLOUDY    38  38  97 CALM      30.15S
VIROQUA        CLOUDY    37  37 100 N5        30.12S WCI  33
BOSCOBEL       CLOUDY    41  37  86 VRB3      30.15R
6HR MIN TEMP:  41; 6HR MAX TEMP:  42; 6HR PCP: TRACE;

PRAIRIE DU CHI CLOUDY    41  36  83 CALM      30.13R
PLATTEVILLE    CLOUDY    40  39  96 N6        30.11R
$$

WIZ056-057-062-063-064-067-068-291300-
SOUTH CENTRAL WISCONSIN

CITY           SKY/WX    TMP DP  RH WIND       PRES   REMARKS
REEDSBURG      CLOUDY    37  37  97 NW5       30.12R WCI  34
BARABOO/DELLS  CLOUDY    37  36  95 W5        30.12R WCI  33
LONE ROCK      CLOUDY    40  36  86 N6        30.13R
MINERAL POINT  CLOUDY    41  39  93 N5        30.11R FOG
MADISON        PTSUNNY   39  37  92 NW5       30.11R
6HR MIN TEMP:  38; 6HR MAX TEMP:  40; 6HR PCP:  0.08;

MIDDLETON      CLOUDY    40  38  91 N8        30.11R WCI  35
WATERTOWN      CLOUDY    38  38 100 N5        30.09R WCI  35
MONROE         CLOUDY    39  37  93 N8        30.09R WCI  34
JANESVILLE     CLOUDY    43  41  93 N5        30.09R
$$

WIZ051-052-058>065-066-070>072-291300-
SOUTHEAST WISCONSIN

CITY           SKY/WX    TMP DP  RH WIND       PRES   REMARKS
MILWAUKEE      CLOUDY    40  38  93 N6        30.09R
6HR MIN TEMP:  40; 6HR MAX TEMP:  41; 6HR PCP:  0.02;

WAUKESHA       CLOUDY    37  37 100 N5        30.10R WCI  34
MILWAUKEE/TIMM CLOUDY    39  37  93 N5        30.10R
RACINE         CLOUDY    40  37  89 N9        30.10R WCI  34
6HR MIN TEMP:  40; 6HR MAX TEMP:  41; 6HR PCP:  0.01;

BURLINGTON     CLOUDY    39  38  97 N6        30.08R WCI  35
KENOSHA        CLOUDY    41  38  89 N7        30.09R
6HR MIN TEMP:  40; 6HR MAX TEMP:  41; 6HR PCP:  0.01;

FOND DU LAC    CLOUDY    41  38  89 N5        30.11R
6HR MIN TEMP:  39; 6HR MAX TEMP:  42; 6HR PCP:  0.01;

SHEBOYGAN      CLOUDY    39  35  86 N5        30.10R
6HR MIN TEMP:  39; 6HR MAX TEMP:  40; 6HR PCP:  0.01;

WEST BEND      CLOUDY    37  36  93 N3        30.08S
JUNEAU         CLOUDY    38  36  94 N7        30.09S WCI  32
$$

LSZ147-162-291300-
LAKE SUPERIOR

STATION/POSITION TIME  TEMP    WIND        PRES    WAVE
                       AIR SEA DIR/SP/G            HT/PER
                 (UTC) (F)     (DEG/KT/KT) (MB)    (FT/S)
W MID LAKE BUOY  1050   37 36  360/  6/  6 1022.5R   1/ 4
DEVILS ISLAND    1100   37      50/  5/  6 1022.7R
SAXON HARBOR     1100   31     190/  3/  7 1021.3R
$$

LMZ867-665-643>646-291300-
LAKE MICHIGAN

STATION/POSITION TIME  TEMP    WIND        PRES    WAVE
                       AIR SEA DIR/SP/G            HT/PER
                 (UTC) (F)     (DEG/KT/KT) (MB)    (FT/S)
CHAMBERS ISLAND  1100   40      10/ 12/ 13 1019.6R
N MID LAKE BUOY  1050   39 38   60/  6/  8 1020.0R   1
NORTHPORT PIER   1100   40     360/  6/  7 1019.6R
ALGOMA LAKESHORE 1000           30/  4/  7   N/A
KEWAUNEE LAKESHO 1100   40     310/  3/  3 1018.1R
SHEBOYGAN LAKESH 1100   39      30/  9/ 10 1019.7R
PORT WASHINGTON  1100   40     280/  3/ 22 1019.6R
S MID LAKE BUOY  1050   40 40   60/  8/ 10 1017.2R   1/ 3
KENOSHA   LAKESH 1100   41     360/ 10/ 13 1017.9R
$$

TC  - TEMPERATURE IN CELSIUS
VSB - VISIBILITY IN STATUTE MILES
WCI - WIND CHILL INDEX
HX  - HEAT INDEX




USA.gov is the U.S. government's official web portal to all federal, state and local government web resources and services.